RH
4 5 4 7 20 33 36 25 17 17 16 18 13 9 8 5 4 3 4 4 5 7 9 8 9 7 6 7 12 33 43 43 49 53 67 66 60 68 77 84 89 86 72 65 63 61 63 60 56 49 44 42 45 53 60 66 67 68 69 70 68 64 62 60 60 59 59 56 54 49 37 22 15 14 14 12 9 8 6 6 7 5 5 6 5 5 6 6 8 10 15 20 23 29 40 51 59
7 15 11 16 33 34 27 21 17 16 16 16 10 7 5 3 4 3 3 4 6 7 8 7 6 6 6 9 11 28 45 48 50 55 61 61 68 76 81 88 88 88 73 64 65 62 63 61 56 48 42 39 40 46 54 63 67 70 72 72 71 66 63 62 61 61 61 59 58 57 50 34 20 14 14 11 9 7 6 7 6 6 5 7 7 5 7 8 9 10 12 17 22 26 33 45 56
8 25 30 24 29 28 22 19 16 14 13 13 8 5 4 3 4 3 5 5 6 6 6 6 5 6 7 12 17 31 46 49 53 57 59 61 75 86 88 89 88 87 74 66 66 63 63 61 55 47 40 37 36 40 49 61 67 71 74 74 74 69 66 64 63 62 62 61 60 58 54 45 28 15 13 13 11 7 6 7 6 7 6 8 9 10 16 17 17 14 10 13 18 23 27 35 46
7 23 35 24 18 20 19 18 15 11 9 8 5 4 3 4 4 4 5 5 6 6 5 5 6 11 18 27 31 38 46 47 54 56 58 62 71 88 92 88 89 88 76 67 66 65 63 60 53 43 38 34 32 35 46 59 65 72 75 76 76 72 69 68 65 63 63 62 61 58 52 49 38 20 14 14 13 11 6 7 11 10 6 9 12 18 27 30 32 25 15 11 14 19 22 25 33
10 21 32 24 16 16 15 14 13 10 7 5 4 4 4 4 5 5 5 5 6 5 5 5 5 16 34 46 45 45 49 52 58 56 65 75 77 89 94 88 90 89 82 73 67 65 63 59 50 40 36 32 30 33 43 55 62 71 76 78 77 75 73 72 69 65 65 64 59 54 49 45 39 27 18 16 15 16 14 14 18 15 11 12 16 24 30 33 36 33 24 14 10 13 16 19 23
13 24 28 23 20 19 19 17 12 9 7 5 4 3 5 5 6 6 6 6 6 5 5 5 5 24 48 54 55 56 56 58 60 60 73 88 89 91 92 89 87 86 89 84 71 64 63 57 46 38 36 33 33 34 40 50 58 69 75 76 77 77 76 74 71 68 68 63 54 48 45 41 38 36 30 27 24 23 24 24 25 24 25 26 29 35 32 34 39 41 33 17 9 10 12 14 17
20 26 21 17 19 20 21 18 12 9 6 4 3 4 5 5 6 6 6 6 7 7 5 5 7 27 47 50 57 63 61 59 59 66 79 89 92 91 90 88 85 85 90 88 74 65 62 53 42 38 39 37 35 35 38 46 56 65 72 75 78 79 77 76 72 71 69 59 50 45 43 42 46 54 48 44 43 38 32 32 36 37 44 52 57 53 44 50 54 48 32 16 9 8 10 12 15
25 25 17 13 14 14 14 12 9 7 5 4 3 4 6 5 6 5 6 5 7 8 6 9 8 18 38 48 60 65 64 60 61 74 84 90 92 89 88 86 86 88 89 86 76 66 59 48 40 40 42 40 37 36 37 41 51 62 71 76 79 79 79 78 74 72 67 57 51 47 49 51 61 75 69 60 59 56 44 37 43 46 58 73 76 68 61 65 55 40 27 16 10 7 9 10 13
22 22 18 14 13 12 11 9 7 5 4 4 3 5 6 5 6 5 6 5 7 8 5 9 7 17 43 54 61 65 65 63 67 79 86 93 92 87 86 86 88 89 90 88 77 65 56 44 39 43 44 41 38 36 36 38 45 59 70 77 81 81 81 77 75 73 66 58 56 58 64 67 75 84 80 72 66 67 56 42 48 56 69 78 79 76 69 59 42 34 28 18 12 7 8 9 16
16 18 17 16 13 10 10 10 7 5 3 3 4 5 5 5 5 5 5 4 8 9 8 8 5 21 48 56 63 69 69 70 76 86 90 91 91 87 87 88 90 90 91 89 75 62 53 41 39 44 44 41 40 38 36 36 42 54 64 75 79 79 79 77 75 72 67 65 68 73 77 77 80 78 74 74 66 65 60 46 57 69 75 78 79 78 64 49 39 35 28 20 14 9 8 11 21
13 14 14 15 14 11 9 8 7 5 3 3 4 5 6 5 5 5 5 6 8 11 11 7 8 31 54 60 72 76 76 76 80 91 91 88 90 89 88 90 93 91 91 87 72 60 50 40 40 44 43 42 40 39 37 34 39 47 55 66 71 73 75 76 73 69 72 76 81 85 83 78 76 68 64 68 60 58 57 54 70 77 76 78 76 71 60 51 42 35 30 23 18 14 11 13 23
13 13 10 11 11 10 8 6 5 3 3 3 4 5 6 5 5 5 7 9 9 11 9 8 19 40 52 62 77 79 79 81 83 93 90 88 92 90 89 91 95 92 90 85 69 60 50 40 42 45 42 42 42 40 37 33 35 38 46 55 58 63 69 70 69 69 79 86 87 85 80 75 70 64 59 58 52 52 55 64 78 78 78 78 72 67 61 55 45 37 34 26 21 19 14 15 23
15 13 10 10 8 8 6 5 5 4 4 4 5 6 6 5 6 6 7 11 11 12 10 11 25 40 51 65 80 80 80 83 86 92 88 89 93 91 91 92 97 93 90 82 67 61 51 43 43 44 43 43 43 40 37 34 32 32 37 43 46 52 60 66 69 75 85 90 86 79 75 74 71 67 60 52 46 47 54 68 76 77 80 75 69 69 63 56 50 42 38 33 27 22 19 17 20
14 12 12 12 9 7 6 5 5 4 4 5 6 6 6 5 6 6 7 9 9 14 16 17 27 45 63 71 78 79 80 86 85 86 86 90 92 91 91 92 96 94 87 75 66 63 53 46 43 45 47 46 45 43 43 37 30 30 30 33 39 44 55 67 74 83 89 88 82 74 75 77 76 73 66 57 52 48 49 63 72 77 82 73 69 72 68 60 54 50 46 45 38 29 22 19 19
11 10 10 10 9 8 6 5 5 4 4 6 6 5 6 5 6 7 7 9 12 20 20 21 24 37 57 61 70 78 81 87 85 84 86 90 90 89 91 92 96 95 87 74 66 66 58 49 43 47 52 54 52 49 52 44 32 29 29 33 39 45 60 72 78 85 87 84 79 75 76 78 80 80 76 70 68 56 42 56 71 78 82 73 69 72 72 64 58 58 56 56 51 41 30 23 21
9 9 9 10 9 8 6 5 4 3 5 7 6 6 7 5 7 7 7 8 13 22 20 21 22 28 42 47 63 79 82 86 88 89 89 90 90 90 89 91 98 97 94 83 70 67 61 52 46 48 51 57 56 51 54 48 39 33 31 39 49 56 67 76 78 81 82 79 77 76 76 78 81 81 78 73 76 65 41 52 73 80 80 71 69 72 71 65 62 62 60 62 59 54 45 33 26
8 9 10 10 9 7 5 4 4 4 5 7 6 7 6 5 7 6 8 8 11 22 22 26 30 30 37 45 60 76 83 86 88 91 90 91 90 90 89 90 97 97 98 94 81 74 67 57 52 50 52 57 58 58 54 48 47 43 44 53 61 66 69 75 77 77 76 74 74 75 76 78 81 78 72 69 74 71 51 57 74 78 78 69 67 70 69 65 64 62 59 61 61 60 59 50 40
9 9 9 10 8 5 4 5 5 4 6 7 6 7 6 5 6 5 7 8 11 20 25 36 45 39 42 55 64 73 81 85 88 90 90 90 88 90 90 90 93 95 96 96 92 86 78 69 59 54 56 61 66 69 59 50 49 49 59 65 64 68 71 73 74 74 72 72 74 73 75 80 83 77 72 72 70 72 67 67 68 70 78 69 60 66 69 66 64 64 62 62 62 60 58 55 52
9 9 9 8 7 5 4 5 5 5 6 6 6 7 6 5 6 6 6 7 11 17 24 37 48 48 53 64 69 75 81 85 88 88 87 88 87 88 89 89 90 92 92 93 95 93 92 84 67 58 60 66 74 77 67 53 47 50 63 68 64 68 72 73 71 72 72 73 73 69 74 78 80 74 74 79 74 73 74 73 66 63 73 67 56 62 70 68 66 67 69 67 63 59 55 51 51
8 8 9 7 5 5 5 5 5 5 6 6 6 6 6 6 5 6 6 6 7 11 19 35 50 57 62 68 73 78 83 87 87 84 84 85 85 85 86 87 86 88 89 91 94 94 98 94 77 64 62 72 78 79 74 58 54 61 66 66 67 69 73 73 69 71 74 73 67 65 71 73 73 71 72 80 81 79 77 76 72 65 68 65 57 58 65 68 67 67 70 69 63 62 65 65 60
7 7 8 6 5 5 5 6 5 6 7 6 6 5 5 5 5 7 6 5 8 9 20 42 56 57 59 68 75 80 84 89 88 84 84 83 81 82 84 85 84 87 89 90 94 94 97 97 89 76 73 83 83 81 77 62 66 73 69 68 69 69 71 74 70 69 73 70 63 62 67 69 70 69 71 79 82 81 81 80 77 75 75 69 59 55 60 61 62 65 65 65 64 69 76 82 80
7 6 6 5 5 6 5 6 6 7 7 6 6 5 4 5 6 7 6 6 9 13 27 49 57 52 57 70 75 81 86 86 87 84 82 81 78 79 82 83 83 86 89 89 91 93 96 97 94 88 85 86 86 87 78 66 74 77 71 74 74 74 74 77 75 69 70 70 64 62 65 69 69 67 70 76 79 79 83 84 81 82 78 70 61 54 54 52 56 61 62 63 62 70 83 87 84
7 7 5 5 5 6 6 6 7 7 7 6 5 5 5 6 7 6 6 6 5 12 31 50 54 49 55 71 78 81 84 85 89 86 80 78 77 77 78 81 84 85 89 88 89 94 97 95 94 92 85 81 86 93 84 76 86 86 79 79 81 81 79 78 76 71 71 70 66 65 67 68 65 67 72 76 80 80 82 83 80 76 68 65 64 56 50 43 42 48 54 59 58 68 85 87 79
6 7 5 5 5 5 6 5 6 7 7 6 5 6 6 6 7 5 5 6 5 10 29 48 51 47 50 67 80 82 84 85 87 84 81 78 76 78 76 78 82 84 88 88 91 97 94 86 87 92 85 82 90 93 86 85 91 92 88 86 84 84 85 81 76 73 70 71 69 68 71 69 66 68 69 72 74 75 78 84 84 77 75 76 72 71 71 62 56 61 63 60 64 74 81 86 85
6 6 5 5 5 6 6 6 7 7 6 6 6 6 6 6 6 5 5 6 6 6 27 50 52 50 55 63 73 81 84 83 79 78 80 79 78 79 77 78 81 85 89 91 97 95 83 76 80 89 87 87 92 84 77 82 85 86 90 93 91 88 89 82 76 73 70 72 70 69 74 71 68 62 60 68 74 78 83 90 90 84 88 88 82 85 87 84 83 85 82 74 79 86 83 87 87
5 5 6 5 5 5 6 6 7 6 6 6 6 6 6 6 5 5 5 5 7 4 19 47 54 55 63 66 72 80 80 80 79 78 82 81 79 80 78 80 82 85 90 94 95 84 73 75 82 89 88 85 81 73 76 83 80 80 86 91 93 90 84 79 76 74 74 73 67 70 76 70 65 58 63 78 84 89 90 90 90 87 93 90 87 94 90 88 89 84 83 81 79 76 77 81 74
6 6 6 5 5 5 5 6 6 6 7 7 7 6 5 5 5 5 5 4 7 5 10 33 50 51 55 63 73 79 79 80 79 81 87 81 78 79 78 81 83 87 94 94 85 76 75 80 85 88 88 80 72 74 83 82 74 77 84 88 92 86 77 76 77 78 78 72 67 72 73 67 67 61 70 88 88 88 85 78 75 74 82 81 79 87 83 81 82 75 68 68 65 59 67 76 72
6 6 6 7 7 6 6 6 6 7 7 7 6 5 5 5 5 4 5 5 4 7 8 18 37 42 43 55 69 77 80 80 78 81 85 81 78 79 78 81 85 88 94 90 80 77 79 83 87 88 82 72 70 79 81 78 78 83 87 89 89 81 74 75 77 78 79 74 70 72 70 66 68 62 67 86 86 79 73 62 60 65 75 81 79 80 77 73 76 69 57 60 65 65 74 80 79
6 6 6 7 7 6 6 5 6 7 7 6 5 6 6 4 5 4 4 6 4 8 10 13 33 45 42 47 60 72 76 77 78 79 80 80 79 78 79 83 86 90 92 89 83 80 78 80 88 90 80 68 68 73 75 81 87 87 89 89 83 76 76 80 81 80 80 78 72 70 70 64 65 62 64 82 86 81 75 64 63 72 79 83 83 82 77 73 75 68 61 68 72 77 82 80 79
6 6 7 7 7 6 5 5 5 5 6 5 5 8 7 4 5 4 4 5 5 9 10 16 37 48 43 45 57 67 71 74 77 77 78 79 76 74 79 85 85 90 93 90 86 83 77 75 84 88 79 71 68 67 74 85 90 89 90 86 79 75 81 87 86 82 79 78 74 73 71 62 59 63 72 88 90 84 81 73 71 76 78 75 76 79 75 73 77 71 69 74 76 84 83 72 76
7 6 7 7 8 7 4 5 5 5 5 4 6 9 7 5 4 4 5 4 5 9 9 18 36 46 45 47 53 61 65 71 74 75 78 78 74 74 79 84 84 88 95 92 87 85 79 74 79 84 79 74 70 70 76 85 90 91 89 87 82 81 85 87 84 80 81 81 78 76 72 62 59 71 86 91 86 82 80 77 77 77 76 74 75 77 77 79 83 79 77 80 84 92 84 68 75
7 8 9 7 8 7 5 4 4 5 5 4 6 8 6 4 3 3 4 3 5 9 8 17 32 42 49 51 50 55 60 65 70 73 77 78 75 77 81 84 84 88 94 92 88 89 86 81 81 81 80 78 75 73 76 82 89 91 92 92 90 88 86 82 80 79 80 84 81 76 73 66 65 83 93 82 79 84 80 78 76 74 74 74 76 76 77 83 86 82 81 85 87 91 87 72 76
7 9 10 8 8 7 5 4 5 5 5 5 6 8 6 4 4 3 3 4 5 9 8 14 29 36 43 52 55 56 56 59 65 66 69 74 77 80 84 87 86 88 92 90 87 89 90 90 86 82 83 83 81 80 81 82 87 92 97 93 86 86 86 83 84 84 80 84 86 81 76 74 77 88 88 76 77 78 74 75 71 71 74 70 73 75 77 83 86 85 84 86 84 87 91 79 74
10 10 9 8 7 7 6 5 6 5 5 7 6 7 6 4 5 4 4 5 6 9 7 10 27 34 31 41 51 53 53 54 56 58 59 68 77 81 85 88 87 88 91 88 85 87 91 92 87 83 84 84 87 93 90 80 80 88 95 91 80 75 81 83 82 87 87 84 89 87 82 82 83 84 81 78 74 68 73 79 70 70 73 70 71 74 77 83 87 85 82 80 81 87 89 81 76
10 11 11 10 8 7 7 6 6 6 5 6 6 7 6 4 5 5 6 7 7 9 7 7 21 36 37 39 45 49 54 54 52 55 56 61 73 80 84 88 88 88 91 90 87 90 96 97 90 86 89 91 94 97 89 82 86 91 88 84 78 70 77 82 76 84 88 82 86 91 88 85 83 80 77 78 74 71 82 86 76 70 70 71 73 75 78 83 84 80 77 75 80 89 84 78 82
8 10 10 9 9 8 6 6 6 6 6 7 7 6 6 5 4 5 6 7 9 8 8 8 12 33 45 39 38 44 52 54 51 53 55 56 67 79 84 86 85 85 90 92 90 92 98 99 90 87 92 95 95 90 88 91 96 97 86 77 81 77 77 85 85 89 91 88 89 89 85 84 85 83 77 76 75 78 87 84 78 74 74 76 74 77 82 83 79 74 74 74 80 90 86 84 91
7 8 8 7 9 8 7 6 6 6 7 7 7 6 6 6 5 5 4 5 8 7 9 8 5 27 51 45 38 41 47 51 49 53 57 56 64 76 81 83 82 81 86 91 92 94 99 96 86 86 93 92 86 82 90 97 93 91 84 75 82 79 74 87 93 89 89 92 89 82 78 79 84 85 81 79 75 81 88 81 75 75 79 82 76 78 84 84 79 74 72 72 79 87 86 88 89
8 9 10 10 9 8 6 6 7 6 8 9 8 8 7 6 6 5 5 5 7 6 8 10 5 19 45 50 45 44 47 50 50 53 55 57 69 81 82 79 78 78 81 85 90 95 99 95 89 90 88 78 73 76 89 99 93 85 80 76 83 81 75 84 90 83 86 89 83 78 73 71 75 74 76 82 79 77 80 77 77 75 78 82 80 79 80 79 77 75 73 72 79 85 84 87 85
9 10 13 14 11 9 7 6 7 6 9 10 8 10 8 7 6 5 6 5 6 6 5 9 7 10 24 32 41 48 45 44 45 46 50 55 64 76 83 81 77 77 78 79 85 94 99 97 91 89 85 79 80 82 85 91 90 84 81 81 84 84 80 81 84 85 87 86 78 73 70 69 70 67 70 81 83 77 72 76 79 76 77 81 80 78 76 76 76 76 78 75 76 81 85 91 86
12 13 16 16 13 11 9 7 7 6 9 10 10 11 10 8 8 6 7 5 6 7 4 7 8 8 10 12 31 50 44 40 40 39 47 53 55 63 72 76 77 78 78 77 84 93 99 98 89 86 91 93 90 86 81 80 85 87 85 87 86 85 85 82 83 85 86 85 78 74 72 66 62 65 71 78 81 78 76 80 81 77 79 78 76 77 76 76 75 76 81 80 78 81 86 91 86
16 16 17 16 12 10 10 8 7 7 9 11 11 14 13 10 10 8 7 7 6 6 5 6 6 8 9 5 22 46 42 36 36 36 45 50 50 52 54 62 72 78 80 81 88 96 99 98 93 93 97 96 92 89 85 82 87 89 82 87 91 88 88 86 82 81 82 85 81 76 71 61 58 64 73 80 82 81 80 81 78 76 78 76 73 76 78 79 77 76 79 81 81 81 84 85 81
16 15 13 12 10 8 8 7 8 10 11 10 11 17 17 11 9 9 7 7 6 7 6 6 5 7 9 5 17 39 37 29 32 37 46 48 41 38 42 48 54 68 83 90 95 96 93 89 90 95 91 86 87 86 84 83 83 84 78 81 89 88 87 86 82 79 79 81 79 74 66 59 63 68 76 87 90 86 83 78 73 74 78 77 73 74 79 82 82 80 79 80 79 81 88 88 80
15 12 9 9 9 8 9 8 10 14 12 9 10 15 17 11 10 9 8 7 5 6 6 5 5 5 7 6 11 30 34 30 33 39 48 48 38 35 36 33 36 60 89 99 97 86 77 75 80 86 76 66 72 72 76 77 68 72 77 75 80 85 81 79 80 79 78 81 79 73 65 60 66 75 80 89 93 88 83 79 74 75 80 79 74 74 77 81 85 86 84 81 78 80 90 89 79
14 10 8 9 9 8 10 9 10 13 11 11 10 10 13 13 12 8 8 9 6 7 7 5 6 5 8 6 5 18 28 31 34 38 44 42 38 38 30 28 48 80 99 99 92 78 70 72 72 76 72 65 67 68 72 71 58 62 74 74 79 86 80 74 75 77 77 75 71 67 62 62 70 75 72 79 92 90 80 80 79 76 79 79 76 74 75 81 87 89 88 83 79 83 89 87 80
12 9 7 7 8 9 10 10 11 11 12 15 11 9 13 15 12 9 9 8 7 7 7 6 5 3 6 7 11 20 24 27 28 29 39 43 42 40 38 53 81 96 93 84 81 77 74 75 69 66 70 67 66 73 82 81 74 75 82 87 90 89 83 76 74 77 74 65 61 62 61 66 71 64 60 73 91 90 80 81 81 78 78 79 80 80 79 84 86 86 88 83 80 83 84 83 81
9 9 8 7 10 11 11 12 11 11 15 17 13 11 14 14 10 10 11 11 15 15 13 15 12 9 14 19 29 34 28 27 24 23 36 50 53 55 61 77 90 91 86 82 79 69 65 72 70 65 67 64 62 74 82 77 75 78 79 86 91 86 80 77 76 77 73 63 60 62 61 64 62 56 66 85 92 88 82 83 85 83 82 82 87 89 87 88 85 82 84 82 80 81 80 79 78
8 9 9 9 12 12 13 13 10 15 19 15 12 10 12 15 12 14 20 19 22 26 24 27 28 25 28 32 37 37 31 28 26 27 39 53 64 71 76 81 88 91 93 94 80 62 68 82 77 70 71 68 65 67 60 47 47 49 45 52 69 77 74 72 73 74 69 62 59 61 61 61 60 61 75 90 94 88 83 83 85 85 86 87 88 90 89 89 85 80 80 80 79 79 78 76 74
10 11 11 13 15 14 15 14 12 19 20 13 10 8 10 15 11 14 25 22 20 27 27 30 36 34 32 36 38 36 34 37 38 42 49 57 64 75 83 88 96 98 97 98 81 66 82 91 78 74 73 70 68 61 46 37 36 30 25 33 50 67 72 68 68 71 65 58 57 60 59 60 68 69 69 82 92 86 76 76 77 77 81 84 85 88 88 86 84 82 80 78 75 76 78 75 73
12 12 13 17 18 18 18 17 16 19 18 13 10 9 12 15 13 18 29 27 24 28 28 30 35 35 34 36 39 42 49 57 61 60 60 60 58 65 79 86 93 96 93 90 83 82 92 86 76 77 75 69 63 51 41 38 34 24 21 28 39 56 72 72 72 74 65 57 58 59 55 59 66 61 61 79 86 73 63 66 66 65 73 81 84 85 86 86 85 83 78 77 77 77 79 75 71
12 13 15 19 20 22 22 20 19 19 19 15 10 12 13 15 24 30 32 32 32 32 33 34 33 39 51 49 45 55 64 69 70 64 61 62 60 66 78 82 88 94 89 80 82 95 96 83 75 73 71 68 57 44 38 33 27 22 19 18 25 46 68 77 79 74 63 59 59 56 57 64 64 58 67 81 74 60 57 60 59 58 67 79 83 81 84 87 85 80 76 78 82 81 78 77 73
13 11 12 17 18 20 20 19 20 23 24 20 17 19 15 20 37 39 33 34 34 33 38 48 51 58 70 67 60 69 75 75 75 66 61 63 64 72 78 73 74 85 91 88 91 96 90 78 70 64 61 59 52 44 39 33 28 31 35 24 21 43 62 73 76 68 61 60 56 54 62 70 69 71 84 82 66 58 59 59 61 63 66 73 78 78 80 83 82 79 77 77 81 82 78 78 78
12 10 12 16 14 14 16 17 19 24 27 24 22 21 18 29 41 32 28 33 32 30 35 53 70 75 79 78 76 80 83 85 86 82 81 80 75 80 84 73 68 81 93 93 93 94 86 75 66 59 53 49 49 47 46 48 44 52 68 55 42 55 64 66 68 63 59 55 52 60 69 70 71 81 91 78 60 56 55 57 65 66 63 64 70 77 79 81 81 77 75 75 75 76 77 76 77
12 12 13 13 9 10 16 19 18 22 28 26 23 22 21 31 37 28 29 39 44 45 40 49 72 80 82 85 84 85 86 88 90 91 97 96 88 90 93 87 84 91 94 89 89 95 90 80 69 58 52 53 56 55 58 67 67 76 93 81 67 69 65 63 66 61 56 53 57 66 68 69 76 86 89 72 58 58 54 59 70 64 59 62 65 71 77 80 79 76 76 77 71 69 70 71 75
12 14 13 10 9 9 13 19 21 24 28 25 21 22 25 33 41 40 44 54 63 63 51 53 72 82 84 89 91 89 87 87 90 92 94 95 95 96 96 96 95 96 95 91 91 94 90 86 81 70 62 62 65 67 73 80 81 87 92 85 79 76 68 68 67 61 59 60 64 64 64 74 82 86 83 69 66 68 57 65 81 69 63 72 69 69 77 76 75 80 81 80 76 70 67 68 75
10 12 11 12 16 15 14 18 24 27 31 29 21 20 31 45 48 44 51 61 65 62 62 68 78 82 86 90 91 88 86 85 88 91 93 93 94 95 96 97 98 96 97 96 96 96 89 84 87 85 80 78 76 77 85 91 91 90 91 90 88 82 79 75 66 62 64 69 73 71 72 81 82 82 81 69 68 68 56 67 88 77 69 79 76 75 82 76 75 84 83 80 82 79 75 75 79
9 9 10 13 16 17 18 18 19 23 28 30 23 23 45 61 54 48 55 61 60 63 76 85 85 86 90 92 91 88 87 87 88 90 93 93 92 93 95 96 96 95 94 95 95 97 94 88 90 92 91 92 89 86 92 98 98 94 94 95 92 87 84 73 63 66 72 78 83 82 81 80 78 81 76 66 70 70 58 66 84 81 77 83 82 80 83 80 77 80 77 79 85 84 84 83 83
12 13 12 13 14 15 19 20 18 19 24 30 28 34 58 65 55 57 64 62 63 71 83 90 90 92 94 94 92 90 88 89 90 90 92 93 91 90 91 93 95 92 89 90 90 91 92 91 91 92 89 88 87 87 93 100 101 97 94 93 92 88 79 68 67 71 76 83 86 85 82 76 78 81 67 63 80 82 69 70 79 80 80 84 85 84 84 81 75 69 68 77 80 76 81 83 82
12 14 12 13 15 15 21 24 21 19 23 30 31 43 66 67 58 69 77 72 73 77 82 89 93 92 90 91 92 91 89 88 87 89 91 94 93 89 90 92 93 91 89 89 88 88 91 90 89 88 85 83 85 88 95 99 98 95 93 93 90 83 74 72 77 75 72 81 86 81 76 75 81 80 66 68 84 85 78 77 76 76 79 80 82 84 81 78 77 73 73 78 73 64 71 75 70
Wind_Speed
2 1 4 5 3 3 7 10 6 4 5 7 9 9 10 5 5 2 2 4 2 5 10 5 5 4 4 7 6 15 18 11 9 5 6 10 13 14 16 19 19 13 17 26 23 22 21 19 18 17 17 17 18 18 18 18 18 18 17 17 16 16 15 15 15 15 14 12 11 11 11 10 10 10 11 12 13 13 14 15 17 17 17 17 16 17 18 19 19 18 18 17 18 19 20 20 20
5 2 1 1 2 6 8 10 5 4 7 7 10 10 5 2 2 4 3 7 7 9 7 5 5 4 2 5 7 9 17 15 13 14 15 15 15 15 19 20 17 11 17 27 24 23 22 19 18 17 17 17 17 18 18 18 18 18 18 17 17 16 15 15 15 15 13 12 11 11 11 10 9 9 10 12 12 13 14 15 17 18 18 17 16 17 18 18 19 18 18 17 17 18 19 19 19
7 5 4 5 6 10 9 7 7 6 7 8 8 5 3 2 3 5 8 9 8 8 3 4 5 6 5 4 2 8 11 13 15 16 17 15 16 19 19 19 17 11 18 27 24 23 22 20 18 17 17 16 17 17 18 18 18 18 18 18 17 16 15 15 16 14 13 12 11 10 11 10 9 9 10 10 11 12 13 14 17 18 18 17 16 17 17 17 17 18 18 18 17 17 18 19 18
7 9 7 9 9 10 8 5 7 7 7 8 5 2 3 4 9 7 7 8 6 5 4 5 4 2 1 4 7 11 11 11 13 13 13 13 17 22 20 21 19 13 20 27 24 23 22 21 19 17 17 16 17 17 18 18 18 18 18 18 17 16 15 15 15 14 13 11 10 10 11 10 8 8 9 9 10 11 12 14 16 18 18 17 17 15 14 15 16 16 17 17 17 17 18 19 19
7 9 5 11 8 6 5 5 6 7 8 8 4 5 6 8 11 6 5 5 4 4 5 6 4 5 10 13 10 7 8 11 12 11 12 15 20 24 22 20 18 15 21 24 23 24 21 21 19 18 18 17 17 17 17 17 17 18 18 17 17 16 15 15 15 14 13 11 10 10 10 10 9 8 9 9 10 10 11 14 15 17 16 16 16 14 13 14 15 15 15 15 17 17 18 18 19
7 3 6 11 10 8 6 6 6 8 10 10 6 5 8 8 9 5 3 3 0 3 6 8 6 9 13 11 14 11 6 8 10 9 12 18 21 22 20 19 18 18 20 20 21 23 21 21 19 19 19 17 17 16 17 16 17 17 17 17 16 16 15 15 14 13 12 11 11 10 11 11 10 9 8 9 10 9 10 12 14 16 15 15 14 13 13 13 14 14 14 15 17 17 18 18 19
5 4 8 10 10 8 6 7 7 9 7 10 7 6 9 7 7 2 4 2 2 3 6 7 6 8 10 8 12 12 8 7 9 10 13 18 20 21 19 19 21 20 20 17 19 22 22 21 20 19 19 18 17 16 16 16 16 17 16 16 16 16 16 15 14 13 12 12 12 11 12 12 10 9 9 8 9 9 10 9 11 14 14 13 13 12 12 11 11 12 14 16 17 18 18 19 19
6 9 9 7 6 6 7 7 8 9 4 5 4 9 7 5 4 2 4 2 2 1 6 4 7 3 7 12 9 8 9 8 10 12 15 19 19 21 19 19 23 22 19 14 17 22 22 21 20 20 19 18 17 16 16 16 16 16 16 16 16 16 15 15 14 13 12 12 12 12 12 11 10 11 9 6 7 8 9 9 10 13 14 12 11 11 11 11 12 13 15 16 17 18 18 19 20
11 11 9 7 6 6 7 8 8 10 7 1 5 10 5 4 3 3 5 5 4 3 8 5 6 5 10 16 12 9 9 9 13 15 18 20 17 21 20 20 23 23 20 14 17 23 22 21 20 20 19 18 17 17 16 16 16 16 16 16 16 16 15 16 14 13 12 12 12 11 11 11 12 12 9 6 6 6 7 9 9 12 14 12 10 10 11 12 14 15 15 16 17 18 18 19 22
11 12 9 5 6 7 7 8 7 10 9 4 8 7 4 5 4 4 6 8 4 3 5 3 4 9 15 13 12 9 9 12 15 16 18 19 18 22 21 20 21 22 21 16 19 25 22 22 21 20 19 19 18 17 16 16 16 16 16 16 16 16 16 15 14 13 12 12 11 11 12 13 13 11 9 7 6 5 6 8 9 11 13 11 9 9 11 13 15 15 15 16 16 17 18 19 22
9 11 9 6 6 7 7 7 8 9 4 6 4 6 5 3 4 5 5 7 6 4 4 2 2 14 17 10 12 9 11 14 14 18 18 17 18 22 21 19 19 22 21 16 21 26 23 23 21 20 19 19 18 17 17 16 16 16 16 16 16 15 15 15 14 13 13 12 12 13 14 13 13 11 10 9 6 5 6 9 11 10 11 11 10 9 12 14 15 15 16 16 16 16 17 19 22
8 8 8 6 6 7 7 8 8 4 7 4 1 9 5 2 2 5 4 6 7 4 5 4 7 14 12 9 12 10 13 13 14 18 17 17 18 20 20 19 20 20 18 16 22 25 23 23 21 20 20 19 19 17 17 16 16 16 16 16 16 16 15 15 14 13 14 14 15 14 14 13 12 11 11 9 7 6 7 11 12 11 11 11 10 11 13 15 15 15 16 16 16 16 16 18 20
9 7 6 6 6 7 9 9 8 4 1 3 5 9 4 1 2 5 6 8 7 2 3 5 13 13 9 10 13 11 13 14 15 17 17 17 17 18 19 20 20 16 15 17 22 24 23 23 22 21 20 19 19 18 17 17 17 16 16 16 16 16 15 15 14 14 15 16 16 14 13 12 12 11 10 8 7 7 9 12 13 12 12 11 11 12 14 15 15 15 15 15 15 15 15 16 18
11 9 7 6 6 8 9 8 7 6 0 9 9 6 1 1 3 5 6 9 8 2 6 5 13 13 11 11 11 13 15 15 16 16 17 17 17 19 20 20 19 14 14 20 22 21 22 22 22 22 21 20 19 18 18 17 17 16 16 16 16 16 16 16 15 16 16 16 14 13 12 12 12 10 8 7 6 7 9 13 14 12 11 10 11 12 13 14 14 15 14 14 13 13 14 14 16
12 11 7 5 6 7 8 7 7 8 2 10 6 5 1 2 3 4 7 8 6 4 5 3 6 7 9 10 10 16 18 18 18 16 16 17 18 19 20 20 16 13 14 19 21 20 21 21 22 22 21 21 20 19 19 18 18 17 17 17 17 17 17 16 17 18 17 15 14 13 13 12 11 9 8 6 6 6 8 14 15 12 11 10 11 12 13 14 14 13 13 13 12 12 12 12 13
12 10 6 5 7 6 7 7 7 7 4 8 3 6 3 2 4 4 3 6 9 2 5 6 2 1 6 11 15 20 20 20 19 18 17 17 19 19 20 20 15 15 15 17 20 20 21 22 22 22 22 21 21 21 20 20 19 18 18 18 18 18 18 17 18 19 16 15 14 13 12 11 10 9 8 6 6 7 9 15 15 12 11 11 11 13 14 14 13 12 12 12 11 11 11 10 11
11 8 6 5 7 8 7 3 3 2 8 8 5 7 3 1 4 3 3 7 11 1 4 2 3 1 5 11 18 22 22 22 21 21 20 19 21 20 20 20 18 18 17 16 18 20 21 23 23 23 22 22 21 21 21 21 20 19 18 18 18 18 18 18 18 17 16 15 14 14 12 11 9 9 8 7 8 8 11 15 15 13 11 11 11 13 15 14 13 12 11 11 11 10 10 9 9
9 6 6 6 7 7 3 7 6 5 9 7 6 7 3 2 4 5 3 9 10 2 4 4 9 8 10 16 19 21 23 23 22 22 22 21 22 22 21 20 20 20 19 18 18 20 22 23 24 23 23 23 21 20 21 21 21 20 19 18 18 18 18 18 17 17 16 16 15 14 13 12 10 10 9 9 9 9 11 13 13 14 13 11 11 14 16 14 14 13 12 11 10 10 10 9 7
9 6 5 8 7 5 5 7 5 6 7 4 4 3 1 3 5 5 7 8 7 4 6 7 9 11 13 18 19 21 24 23 22 22 22 22 22 22 22 21 21 21 21 22 21 22 22 22 24 24 23 23 22 20 20 21 21 20 20 19 19 18 18 17 17 17 17 16 16 14 14 13 12 11 11 11 10 10 11 11 12 13 13 11 10 12 15 14 14 13 12 11 11 10 9 8 8
11 8 6 9 7 5 6 4 5 6 5 4 3 2 2 6 6 3 7 10 7 6 7 8 11 12 12 15 18 21 23 23 23 23 22 21 22 22 22 23 23 22 23 24 24 26 24 22 22 24 24 23 21 20 20 21 21 20 20 20 20 20 18 18 17 17 17 16 16 15 15 14 14 13 12 12 11 11 11 10 10 11 12 11 10 12 12 12 13 12 11 10 11 9 7 7 7
9 9 8 10 6 6 5 4 5 6 6 7 6 4 4 9 6 4 8 9 7 6 5 13 18 15 12 13 16 20 22 23 24 24 24 22 22 22 21 22 23 24 25 25 27 28 26 22 21 23 23 22 20 20 20 20 20 20 20 20 20 21 19 19 19 18 18 16 16 16 15 15 15 14 13 12 12 11 11 10 9 9 10 10 11 12 12 12 12 12 11 10 10 8 3 3 4
7 8 12 15 10 8 5 4 4 5 7 9 9 8 8 9 6 6 11 8 5 1 9 17 21 18 15 15 15 20 22 22 24 25 24 22 22 21 21 22 22 24 26 25 27 28 27 24 23 24 24 22 21 20 19 20 19 20 21 20 21 21 21 20 20 19 19 17 17 17 16 16 15 15 13 12 11 10 10 10 9 9 9 9 10 12 11 12 12 11 11 10 10 8 3 7 7
8 8 12 15 12 9 7 3 2 3 6 9 9 9 9 9 7 10 12 11 10 3 14 18 19 18 16 17 17 19 22 22 23 24 23 22 21 21 21 22 22 24 25 25 28 28 26 25 24 24 23 22 22 21 21 19 18 19 20 21 21 21 22 21 20 19 19 19 19 18 17 16 16 15 13 12 11 10 11 9 8 9 8 7 7 8 8 9 11 11 10 10 9 8 7 9 8
9 8 10 13 11 10 11 8 4 4 7 9 9 9 9 8 8 12 10 10 14 2 14 18 19 19 16 17 19 19 20 20 20 19 19 20 21 20 19 21 22 23 24 24 27 27 23 23 25 24 22 23 22 20 20 20 18 19 19 20 20 20 21 21 19 19 20 20 19 17 16 16 17 16 14 12 11 10 9 9 8 7 7 6 6 6 6 5 7 7 7 8 9 6 8 9 8
11 11 11 13 11 9 10 10 8 8 10 10 10 10 11 12 11 14 10 7 14 5 14 21 21 19 17 17 18 18 19 20 19 18 19 19 20 20 18 19 22 23 23 23 24 23 21 22 24 24 23 23 22 19 19 20 19 18 17 19 20 20 20 20 19 20 21 20 19 18 17 17 19 17 15 12 10 10 10 10 10 9 10 10 7 6 6 5 7 9 9 7 9 8 8 10 9
9 12 13 12 12 11 10 10 11 11 10 9 11 10 13 15 11 14 13 12 16 6 10 22 25 19 17 15 16 18 19 21 21 21 21 21 20 20 19 19 22 22 23 22 20 19 21 23 23 23 24 24 22 20 20 21 20 19 18 19 19 20 20 19 19 20 20 20 19 19 18 18 19 17 15 14 12 13 14 14 12 11 11 11 9 7 9 11 12 13 13 10 11 12 10 10 9
5 9 12 12 13 13 12 12 12 11 10 11 11 11 12 14 11 10 12 17 21 10 7 18 25 19 16 14 16 18 19 21 22 24 24 22 21 20 21 20 20 21 23 22 19 19 22 23 24 24 24 24 22 21 23 23 21 20 21 21 19 19 20 19 20 20 19 20 20 19 19 18 19 18 16 16 15 16 17 15 13 12 11 10 11 10 11 13 11 10 11 10 10 10 9 8 7
9 9 10 11 12 14 14 13 12 10 8 11 12 12 13 13 12 10 13 20 20 10 10 14 18 17 14 13 15 16 19 22 22 24 25 23 21 21 22 21 20 20 22 21 19 20 22 24 25 26 25 24 23 22 23 21 20 22 22 22 19 18 19 19 20 20 19 20 20 19 19 19 19 19 18 17 16 16 16 14 13 12 10 10 10 10 10 10 9 8 9 9 8 7 8 10 10
13 11 9 10 12 13 15 15 15 11 9 13 13 11 11 12 13 13 19 23 16 12 13 10 14 18 15 14 14 14 18 20 20 23 24 24 20 20 21 21 21 20 20 19 19 20 22 25 27 27 26 24 23 23 22 21 21 23 22 22 20 18 19 19 18 18 18 19 19 19 20 19 18 19 20 17 15 13 13 13 13 11 11 12 11 10 9 9 8 7 8 8 8 7 8 12 13
12 11 8 9 10 10 15 16 17 14 12 12 8 6 8 11 16 19 23 24 16 14 15 9 17 20 16 13 12 13 16 17 20 23 23 22 20 19 21 22 22 19 19 19 20 21 22 26 27 27 26 24 23 22 22 22 22 23 22 20 18 18 19 19 18 17 19 18 17 19 21 20 18 20 20 17 15 14 14 14 13 12 11 12 12 10 9 9 7 6 7 7 7 7 7 9 9
8 9 7 7 6 9 15 16 15 12 13 11 5 4 8 11 17 22 24 24 17 13 13 12 19 21 18 15 13 12 15 17 20 22 21 20 19 19 20 23 22 19 20 19 20 23 23 25 26 27 26 24 24 22 21 22 22 22 20 18 17 17 18 18 18 17 18 17 16 18 20 20 19 20 19 17 17 15 14 13 12 13 12 11 10 9 9 9 8 7 7 7 7 7 6 6 6
7 7 7 7 7 10 12 14 14 10 10 11 8 6 8 13 18 24 31 23 15 12 13 14 19 21 20 21 19 17 18 19 19 19 19 18 17 18 19 21 21 20 22 19 20 24 23 25 27 27 26 26 25 21 20 21 21 20 18 16 15 15 16 17 17 17 17 15 14 17 18 19 19 19 18 17 18 14 13 12 12 12 12 11 9 9 10 9 8 8 8 8 8 8 7 7 6
7 7 7 8 9 8 6 12 15 12 9 10 11 8 8 10 13 9 23 17 13 13 15 14 18 19 21 25 25 22 21 18 17 18 17 16 17 18 18 20 20 21 22 20 22 25 25 26 27 27 27 26 24 22 21 21 20 19 17 15 14 15 16 17 18 18 17 13 12 15 16 17 17 17 17 16 16 14 13 12 12 11 10 10 10 10 10 9 8 8 9 9 8 7 6 7 7
7 7 7 9 10 9 5 11 15 15 9 8 12 9 10 10 8 5 11 12 12 14 15 14 17 21 18 19 19 17 18 18 15 15 14 15 17 18 17 19 21 21 21 20 21 25 24 24 25 26 26 25 25 24 22 20 20 20 17 13 12 14 16 18 18 16 15 13 13 14 15 15 15 16 16 16 17 15 13 12 12 10 10 10 9 10 11 9 9 10 10 9 8 7 6 6 7
8 9 7 8 10 11 9 7 11 11 9 7 10 9 9 12 8 5 12 11 12 13 14 16 15 23 18 12 11 8 9 12 12 12 14 16 18 18 17 19 21 21 21 21 21 23 24 22 22 24 24 24 25 23 21 20 20 20 18 14 13 15 16 17 17 15 13 13 13 13 14 15 15 15 15 16 17 15 13 13 12 10 10 10 9 10 10 10 11 10 10 9 8 6 6 7 6
12 10 9 9 7 9 11 3 11 9 8 7 9 9 8 10 12 9 11 15 14 15 15 17 16 22 25 19 16 11 11 11 9 11 15 15 17 20 20 18 20 22 21 22 22 22 24 24 23 24 25 24 22 20 22 24 23 20 18 15 16 17 18 17 14 14 14 13 13 13 14 15 15 15 15 15 16 15 13 12 11 10 10 9 9 10 9 9 10 9 8 8 8 7 6 6 6
15 13 10 9 9 9 11 6 12 9 6 7 7 8 9 10 12 12 11 12 15 15 14 17 18 17 30 29 25 21 17 14 11 13 17 16 18 21 21 18 19 23 24 23 23 24 26 28 27 26 26 23 20 20 23 23 22 21 18 17 19 19 18 16 14 15 15 13 14 15 14 14 15 15 14 14 15 16 13 11 10 10 10 9 8 9 9 8 8 8 8 7 8 9 7 6 6
14 12 10 9 10 7 9 7 11 9 5 6 7 9 11 11 12 13 13 13 12 13 12 15 19 14 25 31 29 28 27 22 16 16 19 19 18 19 20 20 20 24 25 25 25 26 27 28 29 28 25 22 20 21 21 19 18 20 19 17 18 18 15 16 16 15 15 14 14 15 14 14 15 13 13 13 13 15 15 12 10 10 11 10 8 9 9 9 8 8 8 7 8 9 8 7 6
12 8 7 8 9 7 8 8 8 7 3 3 5 8 11 12 13 14 12 13 15 16 15 15 17 17 17 24 29 33 31 26 23 20 18 21 21 20 21 22 22 24 25 25 26 27 26 26 27 25 24 24 22 22 20 17 15 17 17 14 14 15 15 17 18 16 15 15 15 15 13 12 13 12 12 13 12 15 16 13 11 11 12 11 10 10 9 8 8 8 8 8 9 8 8 8 7
8 6 7 8 9 8 8 8 8 7 2 3 6 8 10 11 11 11 11 12 15 22 20 16 17 19 19 19 20 34 37 31 28 24 22 27 27 25 26 26 25 25 26 27 27 25 22 20 22 23 25 26 22 20 20 17 16 16 16 14 15 16 17 18 19 17 16 17 15 14 13 11 12 12 11 12 12 15 14 12 12 11 12 12 11 10 9 8 9 9 8 8 9 9 9 8 8
7 8 9 9 11 12 10 11 10 7 6 4 5 8 8 9 12 11 11 12 14 20 23 17 19 19 21 21 18 31 38 34 32 28 28 32 30 29 31 30 28 27 27 27 23 20 15 15 20 23 24 23 20 18 19 18 17 17 16 16 17 18 18 18 18 17 17 17 16 14 13 13 13 12 11 11 13 13 13 13 13 12 12 12 11 10 8 8 8 8 9 10 10 10 10 9 7
8 10 12 13 14 15 14 14 11 8 8 8 6 7 6 9 15 14 13 14 15 17 20 19 18 19 20 21 17 27 31 29 29 27 30 32 30 31 31 30 31 29 25 19 6 6 10 11 14 18 18 17 18 18 18 17 15 15 16 15 15 17 18 17 17 16 16 16 15 14 14 13 13 13 12 12 12 12 11 12 13 12 12 11 9 9 8 8 7 8 9 10 10 10 9 8 8
8 9 12 14 15 16 16 15 10 8 8 5 6 8 6 7 10 11 12 14 15 16 17 18 19 19 18 19 17 22 29 32 30 28 31 30 28 30 31 31 32 25 17 14 5 9 7 8 12 14 15 14 16 17 18 14 12 14 15 13 14 17 18 17 15 14 15 15 15 14 14 13 13 14 14 13 13 12 10 11 12 12 11 10 9 9 9 8 8 8 8 8 10 9 7 8 8
7 9 11 14 16 15 13 14 11 8 8 8 10 11 7 7 8 10 13 11 12 11 12 17 17 15 17 18 17 14 17 27 31 28 29 29 28 29 31 30 26 16 7 5 5 2 3 11 13 12 14 15 15 16 17 14 10 14 15 15 17 20 19 16 14 14 14 14 15 14 13 13 13 14 13 13 12 11 10 11 11 11 10 9 8 9 10 9 8 9 9 8 9 9 8 8 8
8 11 14 11 9 9 8 10 9 8 8 8 11 11 8 8 8 10 12 12 11 11 11 13 12 15 18 11 5 7 7 7 18 20 22 27 29 29 27 24 21 19 15 9 4 4 9 12 13 13 15 16 16 15 15 14 12 13 14 15 17 20 19 15 13 14 14 13 13 13 13 14 14 13 12 12 10 9 9 9 10 10 10 8 8 9 9 9 10 10 10 9 9 9 9 9 8
9 13 14 7 5 8 8 8 7 7 9 9 10 10 8 8 7 7 8 9 7 4 5 6 3 9 9 8 12 14 14 8 6 10 16 21 23 20 17 15 14 17 17 10 2 4 11 15 17 18 18 18 19 19 15 12 9 8 8 12 16 19 18 16 15 15 15 13 12 13 14 13 13 13 11 9 8 8 8 7 8 8 8 7 7 7 7 10 11 11 11 10 9 8 9 9 9
8 10 11 6 6 8 7 6 7 6 7 10 12 13 11 8 7 5 2 1 2 5 3 5 8 6 6 11 11 10 11 14 12 6 11 11 8 4 4 5 4 3 2 2 5 9 17 22 22 21 20 21 21 22 19 14 9 3 11 14 16 19 18 16 17 17 16 14 13 14 13 12 12 12 11 10 9 9 9 8 9 9 8 7 7 7 7 9 10 11 11 10 9 8 8 8 9
7 7 6 5 5 6 7 6 7 7 8 10 12 14 13 9 8 4 3 3 6 7 4 5 7 7 7 6 7 8 10 11 6 5 11 9 6 3 1 1 4 4 5 7 8 15 23 25 23 21 22 21 20 24 22 15 11 7 11 11 15 20 20 18 18 18 16 14 13 13 12 11 11 11 11 10 10 10 10 10 10 10 9 8 9 8 8 8 8 9 9 8 8 8 8 8 8
9 8 6 6 6 6 7 6 6 7 8 9 11 13 11 7 7 1 8 7 8 8 3 2 3 4 6 7 7 9 9 8 7 5 5 8 8 5 3 2 3 4 4 5 5 20 27 23 20 21 22 21 22 25 20 15 16 11 4 5 14 21 22 21 20 19 17 15 13 13 12 12 12 12 11 10 11 12 11 10 10 10 9 9 8 8 8 8 8 8 7 6 7 7 8 9 9
9 8 7 7 6 5 6 6 6 7 7 8 11 11 9 6 2 7 9 7 10 10 6 3 4 6 8 7 6 5 6 5 3 3 3 5 6 6 3 4 4 4 4 4 8 21 24 19 18 20 21 23 27 25 21 20 19 12 4 7 14 23 26 24 23 21 18 16 15 14 14 13 12 11 10 10 12 12 11 10 10 9 9 9 8 7 8 8 8 7 7 7 7 7 8 10 9
8 9 8 8 6 6 6 5 6 6 4 7 8 7 7 5 2 7 6 5 8 9 9 8 9 8 6 2 3 6 8 8 5 3 5 9 8 6 3 2 3 1 1 4 10 17 18 16 18 20 22 27 28 25 24 23 19 17 15 13 16 27 29 26 24 21 18 18 17 15 14 13 11 10 10 11 12 12 12 11 10 10 10 9 8 7 7 7 7 7 6 6 6 6 7 9 10
8 8 9 8 7 7 5 5 6 3 3 5 5 4 3 0 4 6 8 8 6 5 6 8 7 7 5 4 9 11 11 12 9 4 3 6 6 5 3 4 6 5 6 7 7 10 13 16 17 20 24 27 27 25 27 27 23 22 24 22 25 29 29 27 24 21 19 19 17 16 15 13 12 11 12 13 12 12 12 11 10 10 10 9 8 7 7 7 6 6 6 5 6 6 6 8 9
5 7 9 8 10 9 5 5 5 2 4 5 4 5 3 2 3 4 7 8 10 9 6 6 7 8 8 9 10 9 9 10 8 7 7 5 5 5 5 6 8 9 8 6 4 5 11 17 19 23 27 26 25 25 26 29 28 23 23 26 28 28 27 26 24 21 20 19 19 18 16 13 12 13 13 11 11 12 11 10 9 10 8 8 8 7 7 7 6 6 5 4 4 5 6 6 7
5 5 7 8 9 9 5 5 5 5 7 5 5 9 4 2 2 3 7 9 10 5 2 6 10 10 9 10 9 6 6 8 7 7 7 5 5 4 3 4 5 6 6 5 4 5 10 16 19 22 26 25 24 25 25 28 29 26 25 27 27 28 27 25 23 21 20 21 21 20 17 14 13 14 13 11 12 12 12 11 9 8 8 8 8 7 6 7 7 6 5 4 4 4 5 6 6
11 7 7 6 6 7 5 5 5 6 6 4 7 10 2 3 0 1 5 6 4 2 2 8 10 8 7 8 8 5 6 9 8 8 7 5 5 4 2 1 1 1 2 3 4 4 9 14 15 17 19 19 19 20 23 26 28 28 27 26 27 29 27 25 24 22 22 22 21 19 18 17 16 14 12 12 13 13 13 12 9 8 10 8 7 7 6 6 7 7 6 6 5 5 5 5 6
12 10 8 6 5 5 4 4 5 6 6 5 7 7 0 4 4 4 6 6 4 5 7 8 8 9 9 8 8 8 11 13 11 11 10 9 9 8 6 5 4 3 1 1 2 2 5 8 11 12 13 14 15 16 19 23 27 28 27 26 28 29 27 27 26 24 24 23 21 19 20 19 17 15 12 12 12 11 12 12 8 7 8 7 6 6 5 4 6 7 6 6 6 6 5 6 7
9 9 8 7 5 4 4 4 4 5 5 4 6 4 1 3 5 6 6 5 6 9 11 8 6 6 7 9 11 12 15 15 14 14 13 13 12 10 10 10 9 7 4 1 0 1 4 7 9 10 11 12 15 16 18 22 25 27 28 28 29 29 28 27 27 26 25 24 21 20 21 19 16 14 12 12 12 10 11 11 7 6 6 6 6 6 5 4 3 5 6 5 5 6 5 4 5
9 8 8 8 7 6 6 6 5 4 4 4 4 0 2 2 4 7 6 4 6 10 12 8 4 5 8 13 14 15 17 16 16 17 16 16 13 10 10 12 11 9 6 2 1 2 4 7 8 10 11 13 14 16 20 23 23 26 28 28 29 29 29 28 28 27 25 23 20 20 19 18 15 13 12 12 12 11 13 12 10 9 7 6 5 6 5 4 2 3 5 5 3 4 5 5 5
Wind_Direction
177 189 183 169 133 351 277 236 240 222 222 260 248 251 249 265 344 295 125 78 14 57 56 18 26 341 305 314 324 64 56 47 40 38 101 126 131 135 139 139 153 158 163 162 162 160 154 154 150 150 148 148 150 152 157 161 165 164 164 163 159 157 152 145 140 137 134 131 124 117 113 115 122 133 141 138 135 132 129 128 125 125 123 117 113 111 108 105 102 99 98 97 96 97 102 107 110
148 124 236 195 240 272 259 221 239 245 217 248 246 245 238 133 287 275 22 66 62 54 48 352 338 293 280 299 277 79 63 64 76 89 110 127 126 137 150 144 147 157 162 160 162 160 155 154 152 151 149 148 150 154 159 165 168 168 168 166 164 161 158 150 144 143 139 136 128 120 116 114 118 128 141 140 137 136 134 132 132 131 127 121 117 114 110 106 103 101 101 101 100 100 103 108 114
162 156 237 266 240 242 260 234 234 258 238 247 253 224 175 146 67 51 45 57 52 45 35 306 287 264 230 214 205 89 74 76 88 102 120 134 130 135 149 145 148 161 160 160 162 161 157 153 152 151 148 149 150 156 161 167 170 172 172 170 168 163 162 154 148 148 145 140 132 124 119 119 123 129 139 139 140 144 139 136 138 135 131 127 121 116 111 107 104 104 105 105 105 105 107 111 119
195 160 193 245 237 229 244 246 234 256 258 257 275 64 85 68 63 55 48 43 15 353 316 297 278 247 11 52 63 82 83 74 88 112 127 143 144 139 144 145 148 157 158 161 163 161 159 152 152 151 147 148 151 157 162 169 172 174 175 173 170 166 165 157 153 152 148 143 136 131 126 126 130 135 143 146 146 148 145 141 141 135 134 134 125 119 114 111 106 103 104 106 109 110 112 114 120
184 153 206 244 244 247 245 249 240 245 253 267 289 57 42 55 63 49 37 22 333 298 271 278 260 122 69 45 45 73 80 77 88 104 113 129 145 144 144 147 146 149 152 159 165 161 157 153 151 150 147 148 151 157 163 169 172 174 177 175 172 169 168 159 156 155 150 145 141 139 134 133 134 137 143 150 152 151 150 146 141 132 135 137 129 123 120 116 111 107 106 108 112 113 116 117 120
158 157 242 236 254 288 282 253 240 241 243 263 278 77 66 55 53 45 340 306 256 270 243 252 249 109 82 61 63 65 70 92 103 107 118 130 144 146 139 140 139 140 145 156 168 162 156 154 151 149 147 148 151 156 162 167 172 175 176 176 174 171 169 162 158 156 151 149 149 147 140 138 140 143 140 146 153 150 147 146 140 134 134 134 129 125 124 120 115 113 112 115 115 115 116 117 120
171 249 220 217 251 263 259 252 247 253 235 243 271 63 79 65 50 17 316 325 120 225 214 240 244 106 105 116 75 61 66 92 118 123 138 144 143 138 133 137 140 144 150 160 168 162 156 154 151 149 148 148 150 153 158 164 169 173 175 175 173 172 169 165 161 158 155 154 153 150 144 142 144 144 141 147 154 146 138 139 139 137 131 127 128 131 131 125 121 121 121 121 120 119 118 118 120
234 256 232 219 243 229 237 252 252 261 253 242 301 54 72 54 47 314 323 323 352 208 178 206 238 204 113 109 84 71 74 77 117 133 145 145 139 134 136 141 144 148 153 164 171 163 156 153 152 150 147 147 147 150 154 159 165 168 172 172 171 171 168 167 165 162 162 159 157 155 148 145 145 144 146 158 154 141 134 137 143 137 128 125 131 137 138 132 131 129 126 124 123 122 121 120 120
238 244 248 241 245 244 239 248 250 255 255 232 47 63 67 8 9 303 301 275 306 268 212 193 217 193 103 96 92 90 83 89 123 140 144 139 138 139 144 151 152 151 151 161 169 162 157 154 153 151 148 146 145 147 150 154 159 163 166 168 168 168 168 169 167 167 167 163 162 157 151 147 147 147 154 165 152 137 139 146 143 132 128 131 138 143 145 140 136 132 128 127 126 125 123 122 122
229 229 245 251 250 254 245 246 244 249 246 109 79 76 58 7 354 305 286 277 304 286 220 190 226 136 110 100 96 90 97 116 131 138 143 142 140 143 149 156 155 152 155 166 165 161 157 154 154 152 148 145 145 145 148 151 154 159 162 165 166 167 169 171 170 170 169 164 161 155 149 146 146 148 157 166 165 153 151 145 137 135 135 140 153 154 149 142 137 134 131 129 128 128 126 125 125
229 221 233 258 253 250 252 248 241 235 195 84 71 77 51 1 352 300 272 273 275 266 229 213 233 118 109 92 96 106 116 130 144 141 149 149 141 145 150 154 154 154 164 175 165 160 156 154 155 153 149 146 146 145 147 148 151 156 160 164 166 167 169 171 172 169 165 159 155 150 146 144 146 151 161 172 180 172 153 139 141 150 147 154 168 160 150 143 139 137 133 131 131 130 129 128 129
241 222 217 245 251 252 261 260 265 240 118 98 156 93 70 334 3 295 296 290 267 236 228 172 130 114 107 92 104 124 126 141 154 146 153 149 141 147 151 154 159 164 175 178 164 161 157 155 156 153 152 149 148 148 148 147 150 155 158 163 165 166 169 170 170 166 163 155 151 150 149 149 150 154 163 171 180 172 154 148 152 164 162 168 174 160 154 148 142 139 134 134 133 131 132 131 133
240 246 230 242 255 264 272 275 290 300 101 86 107 104 88 338 32 312 335 311 277 234 280 150 133 112 99 103 114 138 139 150 157 148 151 147 146 149 152 156 164 174 178 175 167 163 159 156 157 156 155 153 152 150 147 147 149 154 158 163 165 167 169 168 166 165 161 154 150 152 155 155 153 155 159 162 168 163 158 161 163 171 177 176 171 162 159 153 145 142 138 135 134 133 133 133 134
233 249 256 264 269 268 274 280 289 287 316 85 93 111 144 345 48 321 305 275 260 183 347 42 115 103 109 118 124 155 150 153 161 154 150 149 150 148 152 161 170 177 170 171 170 165 163 160 160 159 157 156 155 151 149 149 150 153 157 161 165 167 168 165 162 160 158 155 153 157 161 158 155 155 158 161 162 159 161 167 169 176 186 179 171 170 164 156 150 147 144 138 134 132 131 133 134
241 253 263 272 272 265 267 266 273 281 74 92 92 83 357 297 72 293 269 267 301 55 334 342 118 109 145 153 148 165 158 157 166 158 151 151 151 149 157 166 167 164 164 173 172 168 166 164 163 162 161 159 157 154 154 154 154 155 158 160 164 166 166 162 157 157 160 160 158 160 163 160 157 157 159 164 165 161 162 169 172 178 189 185 176 175 168 160 157 154 148 140 133 128 126 127 131
245 262 272 258 261 259 259 247 248 262 90 90 81 71 296 268 86 301 309 280 298 23 261 266 206 168 168 165 152 160 158 157 164 155 152 153 152 153 162 168 159 154 162 172 174 173 170 168 167 167 166 164 160 157 156 156 157 158 159 161 163 165 164 161 158 158 161 162 161 162 162 162 160 161 163 167 169 160 159 169 174 180 190 192 182 176 170 162 159 159 152 143 134 126 120 120 126
238 253 262 252 253 246 254 271 268 251 92 85 60 55 315 321 75 313 32 258 264 210 220 282 355 346 135 140 147 159 156 156 162 157 154 154 153 154 165 171 160 159 164 166 172 176 177 176 172 173 171 165 163 159 157 157 158 161 161 163 164 165 165 162 160 160 162 162 164 163 161 165 165 166 169 171 171 161 160 168 179 187 190 195 188 175 170 164 160 161 158 148 140 132 122 120 122
237 232 243 247 242 243 294 21 9 23 69 64 45 42 320 349 19 337 333 235 228 206 197 104 45 41 92 121 143 156 154 158 163 159 158 158 158 159 166 172 164 163 167 168 172 176 179 181 178 176 172 166 165 164 160 158 159 162 162 165 166 166 166 163 161 162 166 166 168 168 166 169 172 173 171 172 173 165 164 170 184 193 190 195 190 176 172 167 163 162 159 153 147 140 130 129 126
235 232 237 241 246 274 3 20 351 17 42 29 37 53 333 338 346 330 307 265 216 195 193 146 89 73 95 124 142 150 155 164 165 162 164 164 166 166 168 171 169 168 171 175 175 174 177 179 177 175 172 170 170 168 163 159 160 163 164 168 168 167 167 164 164 165 169 173 174 176 176 175 177 177 172 174 175 167 169 175 186 192 190 193 187 180 177 171 169 164 159 153 147 144 141 141 139
226 235 242 238 254 335 3 354 338 11 10 342 348 25 25 292 297 318 307 306 279 233 195 152 118 101 107 132 145 153 162 168 168 169 171 171 172 171 173 174 175 175 176 181 178 174 176 174 174 175 174 172 172 170 166 163 160 162 167 169 170 170 168 166 170 171 172 180 181 179 179 179 179 180 179 177 175 171 171 176 183 183 184 186 182 181 181 178 177 168 162 157 152 151 152 154 153
214 223 245 250 282 341 333 341 355 358 335 322 311 309 303 283 312 343 292 297 288 257 161 129 130 132 136 149 156 163 169 170 174 176 175 177 176 176 179 178 178 180 181 184 182 178 175 172 173 174 174 172 173 174 171 168 163 165 169 170 172 171 170 171 175 179 178 182 182 180 179 179 181 180 181 180 177 177 174 177 181 179 183 183 180 179 180 185 184 177 172 167 163 152 142 198 196
229 232 251 264 294 319 319 4 357 336 314 300 283 278 284 292 315 290 275 277 294 16 114 124 136 146 154 165 169 172 176 178 180 180 180 179 178 180 182 183 181 184 188 187 185 179 173 174 176 175 174 174 176 177 174 172 169 169 171 172 173 173 173 175 178 181 180 180 179 180 179 178 181 178 178 182 179 179 177 181 186 191 196 186 183 183 181 185 188 189 182 179 178 157 177 247 233
243 246 250 263 277 280 288 325 329 322 299 287 282 281 287 303 299 269 267 270 291 46 117 125 135 151 165 173 176 181 184 187 187 184 184 180 180 184 185 187 183 188 194 191 188 181 175 177 181 183 181 178 180 176 171 175 174 173 177 175 176 177 178 179 181 181 179 179 180 180 178 176 179 176 176 182 178 182 182 181 192 203 198 180 177 180 176 177 182 189 189 191 190 171 189 231 238
237 253 254 260 264 261 271 280 290 299 285 279 278 282 284 285 276 265 259 257 275 276 128 136 145 157 171 179 179 186 192 193 194 192 192 189 187 186 188 189 186 192 197 195 191 181 177 182 186 190 184 179 181 176 171 178 179 179 184 179 179 181 181 184 182 180 178 179 180 180 178 176 175 174 174 179 176 182 184 181 195 191 176 185 186 176 176 161 156 180 203 189 179 185 197 212 234
232 248 257 263 270 268 270 276 278 270 268 270 268 269 267 262 263 267 267 260 264 246 128 140 150 158 171 187 188 188 197 197 194 197 200 200 197 191 191 191 191 198 198 196 188 177 182 192 193 191 184 181 181 181 180 183 185 184 186 183 183 185 186 189 182 178 180 180 182 180 182 181 176 175 175 177 176 176 185 192 196 178 168 193 197 166 171 170 167 189 209 187 165 188 203 205 223
227 240 248 256 264 262 260 261 260 259 257 260 261 256 255 253 253 260 259 258 257 243 130 143 144 156 169 179 190 190 201 201 196 200 204 205 201 199 196 194 197 200 198 196 185 180 191 196 194 187 184 186 186 191 185 181 187 186 189 191 189 189 190 190 183 182 182 182 182 179 185 185 177 178 175 173 179 181 191 196 190 180 175 190 190 168 175 186 195 198 201 195 183 194 200 210 223
244 249 253 258 262 262 259 255 253 255 255 255 258 258 259 252 243 246 242 246 248 235 184 161 143 152 169 171 188 194 200 203 203 205 207 208 204 202 200 198 200 198 196 196 191 194 194 191 192 187 186 189 191 194 183 180 191 192 194 198 194 194 192 188 185 184 184 184 183 180 185 187 180 183 177 172 188 196 200 200 193 190 184 188 190 187 194 193 197 199 197 198 198 198 187 204 227
266 264 268 268 268 268 262 261 257 252 254 255 256 260 263 253 246 243 236 242 240 219 214 194 151 153 175 180 185 194 202 202 205 208 209 208 204 203 202 201 199 197 201 197 193 199 192 189 191 187 188 193 193 192 189 189 195 195 196 198 197 195 191 186 186 185 186 187 186 184 184 186 183 186 184 179 195 204 202 202 197 194 188 188 193 196 203 194 192 196 193 191 186 178 168 192 215
262 264 273 265 261 259 250 248 246 240 242 245 245 251 251 245 243 240 246 248 228 201 227 213 143 150 178 189 188 198 209 206 205 211 212 208 204 204 204 205 201 197 207 201 191 196 190 187 188 185 188 194 196 195 196 195 191 194 195 196 196 192 189 185 182 181 184 188 190 189 186 187 185 187 191 183 184 194 196 198 195 195 195 191 194 199 197 187 193 194 191 193 186 182 178 192 202
253 253 260 263 262 251 239 233 230 229 232 234 235 249 247 240 233 226 242 247 215 194 222 193 135 148 169 180 188 200 212 214 213 217 216 209 204 207 205 207 206 197 206 204 193 194 187 185 187 187 189 192 197 198 196 193 190 194 196 195 192 188 188 182 180 182 184 190 191 191 189 189 190 191 190 178 173 186 196 198 193 195 200 196 196 200 189 177 187 185 187 196 190 199 194 191 193
250 249 242 244 257 255 240 219 209 219 220 208 194 253 264 263 241 218 229 239 214 196 218 187 148 153 164 175 196 210 216 219 219 224 223 213 205 208 209 212 213 202 204 204 195 196 188 186 191 190 191 192 196 197 196 195 191 193 193 191 188 186 187 182 185 188 186 191 191 190 190 189 194 191 181 173 176 190 199 197 194 195 199 201 201 194 178 170 179 179 184 188 187 211 207 187 190
233 244 243 230 234 260 248 197 184 213 206 183 197 252 253 266 264 223 215 221 202 196 223 199 160 157 163 175 198 214 219 222 220 224 227 223 213 209 209 214 216 205 204 202 193 196 189 187 194 193 193 193 195 196 195 196 192 190 185 181 183 182 183 182 184 187 188 196 195 192 190 189 193 187 179 179 179 186 199 196 198 201 198 200 198 187 181 177 181 182 189 193 194 218 214 195 206
218 225 244 239 227 247 234 161 172 206 191 175 206 250 250 266 311 239 196 188 180 200 231 213 166 164 171 175 190 203 210 217 214 214 219 226 225 216 211 212 214 207 207 206 196 197 193 190 194 195 194 193 195 194 189 190 190 190 183 175 181 184 184 182 180 182 187 193 191 191 189 186 187 183 183 186 181 185 196 199 204 203 197 200 194 187 188 185 186 187 192 196 191 209 216 200 203
214 215 236 252 246 254 231 166 183 204 192 191 205 227 262 268 336 43 152 168 202 216 234 226 172 169 186 181 185 197 204 212 215 214 216 223 229 224 217 212 212 212 213 212 206 203 196 193 195 194 194 193 191 186 181 186 193 194 185 172 180 190 190 188 185 183 186 186 183 189 192 186 186 186 187 188 187 191 192 198 210 206 201 206 198 189 187 186 195 201 202 198 183 198 219 202 195
222 206 210 241 254 266 262 180 174 192 184 216 226 217 251 263 257 186 161 181 229 240 241 243 195 168 177 183 187 219 242 230 222 227 222 218 225 225 219 216 213 214 216 214 211 207 196 191 193 191 192 191 185 181 182 186 190 188 180 173 181 189 190 193 194 189 193 193 185 189 192 191 193 190 190 191 191 194 191 195 204 207 209 210 201 193 188 190 200 205 205 195 181 197 220 208 195
243 236 226 230 241 257 269 186 150 178 181 203 242 238 236 255 258 235 193 187 212 240 244 246 225 172 165 181 196 222 272 266 236 242 239 224 226 227 220 217 216 217 220 218 214 209 196 187 188 189 191 191 184 184 190 185 179 175 174 178 183 185 189 194 193 190 194 193 188 195 196 196 200 194 193 195 194 194 194 198 200 202 209 208 204 196 189 199 206 201 197 187 178 191 207 201 187
259 277 281 261 255 240 246 210 166 191 226 212 233 259 256 256 263 265 252 220 201 216 236 248 244 180 161 175 186 189 209 225 228 245 249 237 230 230 224 217 218 221 222 221 217 213 204 193 190 191 191 193 195 195 195 186 179 180 183 189 187 187 192 189 184 191 195 191 195 205 204 202 204 197 194 198 197 192 196 207 209 208 208 206 207 198 191 207 211 201 199 187 177 191 197 192 196
265 287 302 275 267 255 243 219 165 173 224 226 236 261 265 262 261 264 267 265 240 212 210 237 248 207 169 175 179 179 187 195 204 224 238 241 233 228 227 220 219 225 228 227 221 215 210 197 186 185 189 196 200 201 197 186 184 192 196 195 187 184 190 188 188 197 199 197 203 206 207 209 209 202 195 202 204 198 204 214 216 218 212 206 208 204 205 213 208 199 199 189 183 194 195 187 201
264 273 277 262 267 277 265 239 170 163 205 234 252 263 265 260 253 252 247 250 264 253 223 215 238 239 205 188 177 174 184 191 192 204 224 236 234 231 233 226 220 227 234 236 230 220 214 201 184 179 187 189 189 194 195 191 193 201 204 199 189 183 187 195 198 203 204 204 206 205 206 211 214 210 199 203 209 207 214 217 217 221 213 208 211 210 216 215 206 199 195 191 190 194 189 184 201
256 253 251 249 253 264 270 249 205 190 226 291 291 283 274 272 266 264 258 246 257 265 254 218 222 245 239 227 194 172 179 186 186 195 210 221 228 230 232 233 228 227 230 235 234 224 212 193 178 176 180 178 179 189 191 194 199 200 204 202 194 190 191 200 204 205 205 204 207 209 211 218 221 218 207 206 210 213 220 220 219 222 214 214 216 214 220 213 204 199 191 189 188 192 190 184 195
247 244 248 250 250 251 255 262 255 227 199 204 269 278 266 265 265 262 264 258 249 258 265 238 213 235 245 244 215 174 177 186 189 198 205 215 226 226 229 234 232 231 231 234 234 219 191 144 148 169 174 168 172 184 186 191 195 194 203 200 192 195 197 200 206 208 204 202 205 210 214 221 223 221 212 208 213 219 225 224 223 223 215 217 218 213 213 205 202 201 195 191 187 193 194 187 185
247 233 236 249 261 263 260 265 274 264 227 199 215 260 261 242 245 245 241 243 236 235 254 252 221 221 240 248 217 176 183 195 193 195 199 210 224 226 230 236 236 237 233 227 210 134 144 134 147 163 160 161 172 183 187 193 200 200 207 206 202 207 208 206 207 209 207 205 206 208 215 221 220 219 210 205 213 220 225 225 225 223 217 220 221 207 197 191 192 201 202 199 197 195 188 185 184
250 239 229 233 244 255 266 269 269 271 268 255 240 256 275 258 249 258 253 244 238 223 226 241 235 221 224 243 230 189 191 199 194 190 192 205 223 226 230 238 241 241 226 211 174 72 93 163 183 165 150 163 176 184 190 195 213 217 213 223 230 228 223 216 210 210 211 210 209 210 218 223 219 215 209 208 212 213 220 223 223 223 218 220 219 205 198 188 183 197 203 202 205 198 180 182 186
242 249 243 233 234 236 246 257 257 269 287 285 268 265 273 274 269 276 279 271 259 247 228 226 228 230 228 231 230 206 192 194 192 191 193 205 225 231 234 240 240 227 213 238 245 260 157 170 184 170 156 168 176 191 198 188 206 220 217 226 233 230 228 224 218 214 211 211 212 214 219 221 216 214 214 217 214 208 215 217 214 216 214 214 210 205 205 191 182 196 200 193 199 196 188 189 184
238 247 253 254 266 268 258 259 254 259 269 262 259 262 258 257 255 259 269 269 256 251 250 241 222 230 243 243 256 331 349 195 193 200 200 206 220 230 233 233 227 223 240 284 302 227 198 180 183 179 167 166 174 191 193 181 197 214 214 220 221 222 225 227 225 214 204 206 211 211 213 212 211 214 218 223 218 210 214 213 208 208 210 210 202 202 205 194 192 199 200 198 197 193 194 200 194
233 249 262 259 263 273 270 268 267 257 254 251 251 254 261 264 258 252 257 263 266 250 247 283 283 231 256 354 14 354 343 327 272 234 209 202 210 221 225 222 228 236 243 254 245 196 205 193 188 189 176 164 171 179 171 165 181 192 216 230 223 221 224 224 218 206 202 208 210 208 209 211 211 209 204 204 206 205 206 202 196 197 202 199 188 194 199 193 198 203 204 210 208 194 191 201 201
232 245 262 252 220 243 254 254 264 266 253 253 251 248 253 266 267 264 254 229 63 62 73 47 33 22 13 15 11 355 328 317 315 257 195 185 176 182 223 233 250 248 205 135 141 191 205 194 187 188 177 171 176 174 162 152 158 226 296 278 243 229 226 220 210 203 206 209 206 207 207 207 206 199 188 182 191 200 198 192 187 187 192 186 179 192 202 195 198 203 203 211 217 206 193 199 201
236 240 247 250 229 227 237 231 232 242 249 254 255 251 245 249 263 247 125 109 99 86 57 53 45 23 16 16 8 350 328 328 343 153 166 171 153 125 150 64 35 41 66 75 125 185 197 191 184 180 178 181 179 172 170 167 175 226 287 281 251 235 222 214 209 204 209 207 201 205 203 195 192 188 186 185 191 197 195 193 191 188 187 185 186 194 200 196 196 201 201 205 214 208 197 200 200
218 232 220 234 244 225 226 228 223 231 245 250 252 256 248 243 274 20 92 69 70 85 73 42 51 15 359 357 354 346 355 31 69 112 165 193 199 217 222 122 40 5 2 34 144 185 191 190 185 180 183 181 169 170 179 178 174 181 209 244 248 236 215 207 209 207 210 208 200 200 195 187 187 188 188 190 198 201 195 191 191 191 186 186 194 197 194 191 192 201 204 199 202 201 197 199 200
206 226 219 220 235 233 228 226 235 243 249 256 256 258 254 250 323 55 70 48 43 55 57 15 343 23 24 352 323 334 12 44 44 355 311 260 237 238 218 139 109 52 356 310 201 189 188 184 179 183 189 177 167 172 175 170 170 177 229 280 247 222 207 203 206 204 205 205 198 193 189 185 187 187 185 193 203 201 195 193 193 195 192 191 200 200 191 189 194 203 203 192 191 199 198 195 197
207 226 234 230 230 240 242 231 241 253 275 291 280 260 253 249 128 92 96 73 41 34 47 27 352 23 50 14 4 22 32 35 16 347 279 264 256 258 257 182 188 15 327 218 193 188 181 170 170 181 184 174 172 180 179 176 179 190 217 244 222 205 198 197 200 198 197 199 194 187 186 181 172 170 186 202 201 193 194 196 194 197 198 200 203 199 194 194 198 206 203 191 189 198 201 196 199
208 217 228 232 234 241 253 260 263 274 294 293 286 281 307 256 149 136 131 113 67 22 57 55 15 24 45 42 42 35 41 51 53 77 178 225 225 229 223 198 209 217 222 217 204 194 179 169 172 179 178 174 178 188 190 190 194 201 211 213 200 192 189 189 192 189 188 192 188 183 182 173 163 172 197 208 199 191 195 193 193 200 200 200 199 194 196 192 189 199 201 195 195 195 197 200 201
213 214 225 229 234 240 247 257 259 252 257 259 243 266 309 107 150 96 90 85 51 21 32 70 64 51 39 41 46 37 44 61 70 90 109 134 145 159 175 179 182 189 211 231 227 203 184 178 181 181 178 179 186 193 196 198 203 209 206 197 189 186 185 185 185 182 180 181 180 178 174 167 169 185 200 206 195 192 195 186 189 201 196 196 200 194 194 191 182 193 197 191 194 188 185 192 193
239 229 232 229 231 242 249 246 241 227 239 247 226 241 246 156 188 53 60 60 54 30 349 56 64 61 46 43 48 40 46 58 60 73 89 94 83 97 148 171 180 192 214 221 197 183 178 178 184 187 186 187 193 197 200 203 206 207 199 191 187 184 183 182 179 176 173 172 173 171 169 171 181 191 198 198 190 189 191 179 180 196 191 189 195 184 185 195 186 188 195 186 182 184 184 185 182
235 246 243 235 231 234 230 233 243 240 242 250 241 243 248 70 319 54 70 74 91 140 54 46 48 41 31 39 43 31 43 54 51 52 61 67 59 50 48 81 157 246 248 211 178 168 171 174 181 193 199 203 204 204 205 206 205 201 195 189 185 183 182 180 175 172 170 167 164 165 171 178 183 189 195 191 185 188 186 173 173 192 186 180 184 172 175 197 186 182 193 188 185 184 180 179 176
223 237 236 238 249 244 236 231 238 245 245 246 246 242 19 34 348 17 74 94 111 100 71 52 40 23 13 30 39 32 41 44 41 39 38 39 38 32 30 25 11 7 354 181 147 160 192 195 192 199 214 224 224 216 210 207 203 196 190 186 184 183 180 177 173 169 166 161 160 170 178 180 181 188 194 182 173 180 177 165 170 182 171 169 171 157 165 193 186 186 188 182 188 191 182 178 174
212 226 229 229 234 240 246 237 233 253 258 262 259 244 70 7 345 11 45 68 70 88 90 74 61 50 40 52 47 39 43 40 37 40 37 35 35 36 43 37 27 28 27 23 134 196 206 207 205 201 205 218 226 221 211 207 202 192 186 186 186 182 178 175 172 169 162 159 167 177 176 176 180 188 188 168 160 167 160 154 164 162 157 172 163 150 167 181 178 186 175 173 195 187 176 189 182
217 220 228 230 231 233 239 231 217 234 252 269 273 204 74 323 2 25 8 15 66 98 106 98 111 117 81 66 53 43 42 36 35 39 35 34 34 37 47 42 33 31 26 44 161 221 201 195 200 198 198 206 215 216 211 207 199 189 187 187 183 179 177 174 169 166 161 161 172 178 174 175 179 180 171 157 160 165 154 154 161 157 167 182 162 156 158 135 149 174 149 163 186 130 146 213 229